Regional Weather Roundup
Issued by NWS

Home | Current Version | Previous Version | Graphics & Text | Print | Product List | Glossary Off
Versions: 1 2 3 4 5 6 7 8 9 10 11 12 13 14 15 16 17 18 19 20 21 22 23 24 25 26 27 28 29 30 31 32 33 34 35 36 37 38 39 40 41 42 43 44 45 46 47 48 49 50

000
ASUS43 KTOP 261708
RWRKS

WEATHER ROUNDUP FOR KANSAS
NATIONAL WEATHER SERVICE GOODLAND KS
1100 AM CST WED NOV 26 2014

NOTE:  "FAIR" INDICATES FEW OR NO CLOUDS BELOW 12,000 FEET WITH NO
SIGNIFICANT WEATHER AND/OR OBSTRUCTIONS TO VISIBILITY.

KSZ001>006-013>018-027>032-041>047-261800-
NORTHWEST KANSAS

CITY           SKY/WX    TMP DP  RH WIND       PRES   REMARKS
GOODLAND       CLOUDY    34  29  82 N16G23    30.27R WCI  24
HAYS           PTSUNNY   37  18  44 N29G35    30.23R WCI  25
HILL CITY      PTSUNNY   37  19  48 N25G37    30.25R WCI  25
RUSSELL        MOSUNNY   40  22  48 NW25G35   30.21R WCI  29
$$

KSZ061>065-074>080-084>089-261800-
SOUTHWEST KANSAS

CITY           SKY/WX    TMP DP  RH WIND       PRES   REMARKS
DODGE CITY     CLOUDY    42  22  44 N23G36    30.25R
ELKHART          N/A     40  21  46 NW12        N/A  WCI  33
GARDEN CITY    CLOUDY    40  22  48 N25G32    30.26R WCI  29
GREAT BEND     PTSUNNY   43  19  39 N24G35    30.22R
LIBERAL        SUNNY     43  27  52 NW23      30.29S
PRATT          CLOUDY    43  25  49 NW28G33   30.21R
$$

KSZ066>073-081>083-090>101-261800-
SOUTHEAST KANSAS

CITY           SKY/WX    TMP DP  RH WIND       PRES   REMARKS
CHANUTE        MOSUNNY   49  26  41 NW20G33   30.06R
COFFEYVILLE    SUNNY     50  27  40 NW24G32   30.08R
HUTCHINSON     PTSUNNY   46  23  40 NW23G33   30.17R
MEDICINE LODGE   N/A     48  27  44 N23G31    30.19R
NEWTON         PTSUNNY   43  21  42 NW29G37   30.14R
PARSONS        MOSUNNY   50  27  40 NW22G30   30.08R
WICHITA INTL   MOSUNNY   48  24  39 NW31G37   30.14R
WICHITA JABRA  PTSUNNY   46  24  42 NW29G38   30.14R
WICHITA MCCONL SUNNY     47  22  37 N21G31    30.14R
WINFIELD       MOSUNNY   50  28  42 NW29G36   30.16R
$$

KSZ007>012-019>026-033>040-048>060-102>105-261800-
NORTHEAST KANSAS

CITY           SKY/WX    TMP DP  RH WIND       PRES   REMARKS
CONCORDIA      CLOUDY    35  25  66 N17G31    30.16R WCI  25
EMPORIA        CLOUDY    43  24  47 NW20G28   30.08R
LAWRENCE       CLOUDY    42  29  59 NW26G32   30.03R
MANHATTAN      MOSUNNY   42  25  50 N17G30    30.12R
MARYSVILLE     CLOUDY    34  28  80 N32G38    30.10R WCI  20
OLATHE IND     CLOUDY    41  31  67 NW21G33   30.01R
OLATHE EXE     CLOUDY    42  31  64 NW16G28   30.00R
SALINA         MOSUNNY   44  22  41 NW30      30.15R
TOPEKA BILLARD PTSUNNY   44  28  53 NW26G37   30.06R
TOPEKA FORBES  MOSUNNY   46  28  49 NW28G37   30.04R
$$


USA.gov is the U.S. government's official web portal to all federal, state and local government web resources and services.